Location: Baumgartsau
(48.4586°N, 14.0864°E)
Time: 16:00:28
(UTC+00:00)

BREEZE M DEB (TANK) - Pass Details

Date: 19 May 2021
Orbit: 296 x 11843 km, 49.5° (Epoch: 14 June)

Event Time Altitude Azimuth Distance (km) Brightness Sun altitude
Rises 22:29:23 0° 299° (WNW) 7,020 8.5 -21.2°
Reaches altitude 10° 22:33:36 10° 290° (WNW) 6,964 8.2 -21.3°
Maximum altitude 22:56:56 32° 241° (WSW) 9,474 8.2 -21.6°
Enters shadow 23:39:26 17° 205° (SSW) 14,753 8.9 -21.0°
